Regional Weather Roundup
Issued by NWS Little Rock, AR

Home | Current Version | Previous Version | Text Only | Print | Product List | Glossary On
Versions: 1 2 3 4 5 6 7 8 9 10 11 12 13 14 15 16 17 18 19 20 21 22 23 24 25 26 27 28 29 30 31 32 33 34 35 36 37 38 39 40 41 42 43 44 45 46 47 48 49 50
000
ASUS44 KLZK 020205
RWRLZK

WEATHER ROUNDUP FOR ARKANSAS
NATIONAL WEATHER SERVICE LITTLE ROCK AR
800 PM CST SUN FEB 01 2015

NOTE: "FAIR" INDICATES FEW OR NO CLOUDS BELOW 12,000 FEET WITH NO
SIGNIFICANT WEATHER AND/OR OBSTRUCTIONS TO VISIBILITY.

ARZ001-003-010-029-020300-
NORTHWEST ARKANSAS

CITY           SKY/WX    TMP DP  RH WIND       PRES   REMARKS
FAYETTEVILLE   CLOUDY    23  16  74 NW18G25   30.11R WCI   9
FORT SMITH     CLOUDY    30  17  58 NW23G35   30.16R WCI  17
HARRISON       CLOUDY    25  20  81 NW21G30   30.01R WCI  11
BENTONVILLE    CLOUDY    21  14  73 NW16G24   30.12R WCI   7
ROGERS         FLURRIES  21  16  81 NW18G29   30.10R WCI   6
SILOAM SPGS    CLOUDY    21  10  63 NW21      30.15R WCI   6
HIGHFILL       CLOUDY    22  15  75 NW21G26   30.11R WCI   6
SPRINGDALE     CLOUDY    23  16  74 NW20G29   30.11R WCI   8
$$

ARZ004-005-016-020300-
NORTH CENTRAL ARKANSAS

CITY           SKY/WX    TMP DP  RH WIND       PRES   REMARKS
BATESVILLE     CLOUDY    37  27  65 W15G26    29.94R
FLIPPIN        CLOUDY    30  19  64 NW17G31   30.01R WCI  18
MTN HOME       CLOUDY    28  22  78 NW10G28   29.99R WCI  19
$$

ARZ040-041-020300-
WEST CENTRAL ARKANSAS

CITY           SKY/WX    TMP DP  RH WIND       PRES   REMARKS
MENA           CLOUDY    36  27  69 NW15      30.09R
MOUNT IDA      CLOUDY    35  24  64 NW13G29   30.03R WCI  26
$$

ARZ009-017-025-026-028-020300-
NORTHEAST ARKANSAS

CITY           SKY/WX    TMP DP  RH WIND       PRES   REMARKS
CORNING        MIX PCPN  39  32  75 W18G33    29.87R
JONESBORO      CLOUDY    40  33  76 NW15G28   29.87R
NEWPORT        CLOUDY    39  31  73 NW17      29.93R
WALNUT RIDGE   CLOUDY    37  28  70 W20G30    29.89R
BLYTHEVILLE    CLOUDY    43  35  73 NW24G32   29.83R
$$

ARZ022-023-033-042-044-020300-
CENTRAL ARKANSAS

CITY           SKY/WX    TMP DP  RH WIND       PRES   REMARKS
LITTLE ROCK    CLOUDY    41  28  60 W20G29    29.99R
N LITTLE ROCK  CLOUDY    39  32  75 NW10G30   29.99R
JACKSONVILLE   CLOUDY    40  30  66 W18G24    29.97R
SEARCY         CLOUDY    40  31  70 NW8G18    29.96R
HOT SPRINGS    CLOUDY    37  26  64 NW20G28   30.04R
RUSSELLVILLE   CLOUDY    35  24  64 W18G36    30.05R WCI  24
CLINTON        CLOUDY    37  27  65 NW15      30.01R
$$

ARZ036-020300-
EAST ARKANSAS

CITY           SKY/WX    TMP DP  RH WIND       PRES   REMARKS
WEST MEMPHIS   MOCLDY    44  38  79 NW16G25   29.87R
$$

ARZ050-053-066-070-073-020300-
SOUTHWEST ARKANSAS

CITY           SKY/WX    TMP DP  RH WIND       PRES   REMARKS
ARKADELPHIA    FAIR      42  30  62 W15       30.06R
CAMDEN         PTCLDY    41  32  70 MISG      30.03R
TEXARKANA      PTCLDY    41  28  60 NW23G30   30.09R
EL DORADO      CLOUDY    44  32  62 NW15G25   30.03R
DE QUEEN       CLEAR     37  25  61 NW14G22   30.12R
$$

ARZ056-057-069-020300-
SOUTHEAST ARKANSAS

CITY           SKY/WX    TMP DP  RH WIND       PRES   REMARKS
PINE BLUFF     MOCLDY    42  30  62 NW18G29   29.99R
STUTTGART      CLOUDY    41  30  65 NW24G33   29.96R
MONTICELLO     MOCLDY    44  33  65 NW14G21   29.98R

$$




USA.gov is the U.S. government's official web portal to all federal, state and local government web resources and services.